Location: Franzen
(48.6167°N, 15.3833°E)
Time: 10:43:46
(UTC+00:00)

Cosmos 2151 - Pass Details

Date: 22 April 2021
Orbit: 581 x 600 km, 82.5° (Epoch: 16 May)

Event Time Altitude Azimuth Distance (km) Brightness Sun altitude
Rises 19:34:17 0° 349° (NNW) 2,862 7.3 -14.3°
Reaches altitude 10° 19:36:30 10° 348° (NNW) 1,954 6.4 -14.6°
Maximum altitude 19:40:49 76° 263° (W) 622 3.1 -15.1°
Enters shadow 19:44:11 16° 179° (S) 1,569 4.7 -15.6°
